Погода в Харькове

Погода в Харькове : погода сейчас, прогноз погоды и архив. Всё, что Вы хотите узнать о погоде в Харькове!

Хотите узнать прогноз погоды в Харькове? Тогда Вам сюда: Погода в Харькове

Поиск расширенной информации на нашем сайте:

Другие новости

Новости СМИ2

Главная страница сайта

Новости сайта

03.07.2017

Напоминаем, что на нашем специализированном сайте Метеоцентр.Азия вы можете получить высокодетализированные автоматические прогнозы погоды по пунктам России, СНГ и мира в авиационном формате (включающие направление и скорость ветра, видимость, явления погоды, количество и форму облачности, нижнюю и верхнюю границу облачности).

Рекомендуем: такси оптимальное Харьков телефон

Погода в Харькове - сегодня

Время (UTC), дата Ветер
(°,м/с) 
Видим.   Явления Облачность Т
(°С)
Тd
(°С)
f(%) Тe
(°С)
Pmin
(гПа)
dP
(гПа)
Po
(мм)
O2
(г/м3)
Тmin Tmax R s Состояние
почвы
06 18.02.18 290 (З) 2400 м  в посл. час туман  10/10 200 м 
[St]
-0.9 -1.3 97 1022.1  0.8  752  304  -2.2    0.9     
09 18.02.18 270 (З) 5000 м  дымка  10/10 240 м 
[Sc]
-0.2 -1.1 94 1022.1  0.1  752  303           
12 18.02.18 240 (ЮЗ) 10 км    9/9 870 м 
[Sc]
+1.2 -2.6 76 +1  1021.3  -0.7  751  302           
15 18.02.18 240 (ЮЗ) 10 км    9/9 1200 м 
[Sc]
+0.4 -3.6 74 1021.9  0.5  752  303           
18 18.02.18 220 (ЮЗ) 10 км    9/5 1000 м средняя 
[Sc|Ac und]
-0.8 -4 79 -3  1022.3  0.3  752  304           
21 18.02.18 150 (ЮВ) 10 км    10/4 1000 м средняя 
[Sc|Ac und]
-2.5 -4.4 87 -4  1021.7  -0.7  752  306           
00 19.02.18 180 (Ю) 10 км    10/0 средняя 
[Ac und]
-1.3 -3.6 84 -2  1021.2  -0.4  751  305           
03 19.02.18 230 (ЮЗ) 5000 м  в посл. час снег  10/10 150 м 
[Sc]
-1.8 -3.3 89 -4  1020.4  -0.8  751  305           
06 19.02.18 250 (З) 2700 м  слаб. снег  10/8 100 м средняя 
[Frnb|As op]
-1.1 -1.8 95 -3  1021  0.6  751  304  -3.2    0.0     
09 19.02.18 260 (З) 4100 м  слаб. снег  10/10 300 м 
[Sc]
-0.2 -1.9 88 -2  1021.2  0.3  751  303           
12 19.02.18 280 (З) 10 км  {ливн. осадки, снег}  10/10 360 м 
[Sc]
-0.8 -3.6 81 -3  1021.5  0.2  751  304      0.0     
15 19.02.18 290 (З) 7000 м  слаб. ливневой снег  9/9 540 м кучево-дожд. 
[Cb cap]
-1.3 -3.9 82 -4  1022.3  0.8  752  305           
18 19.02.18 270 (З) 10 км  {ливн. осадки}  10/10 1000 м 
[Sc]
-2 -4.5 83 -4  1023  0.6  752  306    +0.4  0.0     
21 19.02.18 280 (З) 7000 м  слаб. ливневой снег  10/10 330 м кучево-дожд. 
[Cb cap]
-2.9 -4.9 86 -6  1023.2  0.1  753  307           
00 20.02.18 280 (З) 10 км  {ливн. осадки}  6/6 1000 м 
[Sc]
-4.7 -7.9 78 -7  1023.6  0.3  753  309      0.2     
03 20.02.18 140 (ЮВ) 0200 м  туман  ?/?  
-1.1 -1.1 100 -4  1014.1  -0.9  746  302           
06 20.02.18 120 (ЮВ) 10 км  слаб. переохл. дождь (гололёд)  10/10 200 м 
[Sc]
-0.8 -1.8 93 -3  1016.7  -0.8  748  302  -6.6    0.0     
09 20.02.18 290 (З) 10 км  в посл. час ливневой снег  9/9 360 м 
[Sc]
-2.9 -5.9 80 -5  1023.8  0.3  753  307           
12 20.02.18 290 (З) 10 км  {ливн. осадки, снег}  9/9 660 м 
[Sc]
-2.8 -7.7 69 -5  1023.6  -0.2  753  307           
15 20.02.18 300 (СЗ) 10 км    10/10 600 м 
[Sc]
-3.4 -7.7 72 -6  1023.9  0.3  753  308           
18 20.02.18 090 (В) 7000 м  в посл. час переохл. осадки (гололёд){снег, морось}  10/10 200 м 
[St]
-1.7 -2.8 92 -6  1030.2  0.6  758  308    -1.1  0.0     
21 20.02.18 300 (СЗ) 10 км    9/9 630 м 
[Sc]
-5.3 -9 75 -7  1025.3  0.3  754  311           
00 21.02.18 280 (З) 6000 м  дымка  ясно 
-8.6 -10.5 86 -10  1025.9  0.3  754  315           
03 21.02.18 290 (З) 3200 м  дымка  ясно 
-10.4 -11.6 91 -12  1026.1  0.1  754  317           
06 21.02.18 270 (З) 3700 м  слаб. снег  10/10 600 м 
[Sc]
-9.6 -10.8 91 -9  1026.6  0.6  755  316  -11    0.0     
Время (UTC), дата Ветер
(°,м/с) 
Видим.   Явления Облачность Т
(°С)
Тd
(°С)
f(%) Тe
(°С)
Pmin
(гПа)
dP
(гПа)
Po
(мм)
O2
(г/м3)
Тmin Tmax R s Состояние
почвы

Для получения пояснительной информации подведите курсор к названию столбца.

ПОГОДА в Харькове - архив

Всё, что Вы хотите узнать о погоде в Харькове - удобно и подробно!

Выберите нужную дату (начиная с 1 января 2015* года) и нажмите кнопку "Найти".
Будут отображены архивные сводки погоды по пункту Харьков, начиная с указанной даты.


Отображать данные в формате CSV (для использования в таблицах Excel)


Внимание! Наш архив погоды предназначен исключительно для личного некоммерческого использования в познавательных целях. Если Вам необходимы официальные справки о состоянии погоды (для производственных, юридических, коммерческих и т.п. целей), обращайтесь в органы Росгидромета.

*Примечание: данная дата относится к архиву по метеостанциям СССР (Россия, СНГ, Балтия).
Архив по метеостанциям Зарубежной Европы и Азии (кроме Китая) хранится 10 дней, по другим регионам земного шара (Китай, Африка, Америка, Австралия, Океания) - 1 день.

Харьков - район местоположения метеостанции


Название, широта, долгота, высота метеостанции:
Харьков 49.1°ш. 36.1°д. 155 м над ур. моря [Украина]

Дополнительная информация

В oтличие oт бoльшинства пoгoдных сайтoв мы публикуем пoдрoбную метеoинфoрмацию в детальнoм прoфессиoнальнoм фoрмате.

Характеристики температуры и влажнoсти вoздуха измеряются на высoте 2 м в тени вдали oт зданий и деревьев.
Скoрoсть ветра измеряется на высoте 10 м (на урoвне рoста челoвека скoрoсть ветра ниже в 1.5-2 раза). Если метеoстанция нахoдится в гoрoде или в лесу, тo скoрoсть ветра занижена на 2-4 м/с пo сравнению с oткрытым местoм. Скoрoсть ветра над акватoриями крупных рек и oзёр, а также на вершинах хoлмoв на 2-5 м/с выше, чем в oбычных услoвиях.
Атмoсфернoе давление в разных тoчках местнoсти мoжет значительнo oтличаться oт давления на метеoстанции, в зависимoсти oт услoвий рельефа (при пoдъёме на 10 м давление пoнижается примернo на 1 мм рт.ст.).